Lid_Strength_Index
2 2 2 2 2 2 2 2 1 1 1 1 1 1 1 1 2 4 9 5 4 -1 -0 6 8 7 8 9 9 11 13 15 15 13 11 8 8 6 4 6 5 5 5 4 2
2 2 2 2 2 2 2 2 2 1 1 1 1 1 1 1 5 7 2 -2 -2 -2 7 7 7 7 8 8 9 11 13 14 12 12 10 8 7 7 7 7 7 6 4 3 2
2 2 2 2 2 2 2 2 2 1 1 1 1 1 1 2 9 8 -1 -3 -3 -1 6 6 7 8 10 11 10 12 12 11 11 10 9 9 10 7 7 9 7 7 6 4 3
2 2 2 2 2 2 2 2 2 1 1 2 2 1 1 4 12 8 -5 -4 -4 4 6 7 9 11 11 10 11 11 11 10 10 11 9 9 8 8 8 7 5 4 4 4 4
2 2 2 2 2 2 2 2 2 2 2 2 1 1 4 10 9 6 -4 -4 3 5 7 8 10 11 11 12 11 12 11 11 10 10 10 6 8 8 8 5 5 4 4 4 4
3 3 3 3 3 2 2 2 3 2 2 2 1 1 7 11 6 5 3 2 3 5 6 8 8 8 11 11 11 11 11 10 10 11 9 8 8 7 7 5 5 5 5 5 4
3 3 3 3 3 3 3 3 3 3 2 1 1 2 8 8 6 5 5 6 6 5 7 7 7 8 9 11 10 10 11 10 10 10 8 8 10 9 6 5 6 6 5 5 4
3 3 3 3 3 3 2 2 3 2 1 1 0 6 9 6 5 5 6 6 6 6 6 6 7 9 10 10 9 11 12 14 11 10 9 10 13 8 7 6 7 6 6 5 5
3 3 3 3 3 2 3 3 2 1 1 0 6 8 8 3 6 5 6 6 5 6 5 4 7 9 9 11 13 12 14 14 12 11 11 11 12 8 6 6 7 7 6 5 5
3 3 3 3 3 3 3 3 2 2 2 2 5 9 7 7 5 5 6 5 6 6 7 7 9 11 12 12 15 15 14 13 13 12 11 12 12 8 7 7 7 7 7 6 5
3 3 3 3 3 3 5 6 6 8 8 10 8 8 7 5 5 6 5 5 6 7 10 9 11 13 13 12 12 12 13 13 11 11 12 12 11 9 7 7 8 7 8 7 5
3 3 3 3 3 3 6 6 6 6 8 6 7 7 6 5 7 6 5 7 8 10 10 10 13 11 10 10 10 11 13 13 11 11 12 12 12 9 8 8 7 7 7 6 6
3 3 3 3 3 5 6 5 4 5 9 7 6 7 6 6 7 7 5 7 8 10 11 12 11 9 9 10 11 13 13 13 13 12 13 13 14 11 9 8 7 6 6 6 6
3 3 3 3 5 6 6 4 5 5 12 10 7 6 6 7 7 5 5 6 8 11 10 11 9 9 10 11 11 14 11 11 12 14 15 13 17 14 11 10 8 7 7 6 5
3 3 3 4 7 6 5 5 6 7 16 8 8 6 8 7 7 6 4 6 9 9 9 10 10 11 11 11 10 12 11 13 13 14 16 14 17 15 11 12 10 10 8 7 7
4 3 4 5 7 5 5 6 6 12 16 10 9 10 10 8 7 6 6 6 7 9 9 10 9 10 10 9 10 11 13 14 15 16 18 16 16 15 13 11 10 9 8 8 9
4 4 5 5 6 6 5 7 13 15 10 10 11 10 10 9 8 7 8 9 11 13 13 11 11 9 8 11 10 12 14 18 18 18 18 15 14 13 11 10 9 9 9 9 8
4 5 6 5 7 5 6 9 15 12 11 8 8 10 11 10 9 8 9 10 9 10 12 14 14 10 9 11 12 14 15 17 20 20 18 14 17 13 9 9 9 8 9 8 9
5 5 5 5 6 4 7 13 14 12 8 8 9 12 11 10 10 9 10 10 9 10 12 14 13 9 10 10 10 13 15 14 16 17 18 16 13 10 9 10 9 9 8 10 10
5 4 4 3 4 5 9 11 10 8 7 8 11 10 12 11 11 10 10 8 9 8 10 12 14 11 9 10 10 13 11 15 16 19 19 17 16 14 11 10 10 10 11 11 10
7 8 5 4 4 8 11 11 8 6 6 8 10 10 10 11 10 11 10 8 8 8 9 11 13 13 10 12 12 13 13 15 15 16 19 19 17 13 12 11 11 11 11 11 10
10 10 7 5 8 11 11 9 7 7 6 8 8 8 10 10 11 11 10 9 7 8 11 11 13 15 12 10 9 12 14 14 17 17 17 17 16 11 12 11 11 11 10 11 10
10 10 5 6 11 11 10 8 6 7 7 8 8 8 9 11 12 10 9 7 7 8 10 11 15 18 16 14 11 11 12 13 15 16 17 18 16 10 10 11 10 11 11 10 9
8 10 8 8 10 11 11 10 9 6 7 7 8 8 10 11 11 11 10 8 7 8 6 8 14 15 17 15 12 12 11 12 13 18 16 16 14 12 11 11 11 10 11 10 10
7 9 8 11 10 11 11 9 10 10 8 8 9 9 10 13 12 11 9 9 8 6 9 12 14 13 12 11 11 11 11 11 13 13 15 13 14 12 12 11 11 10 10 10 9
8 9 8 10 10 12 12 11 10 9 10 10 10 9 10 11 10 11 10 10 10 10 12 12 14 13 13 11 11 12 11 11 11 11 13 13 13 11 11 10 10 10 10 10 9
7 7 8 10 9 12 11 10 9 8 8 8 9 10 10 9 8 9 9 9 9 10 12 12 13 14 15 12 12 16 12 11 11 11 12 14 13 11 11 10 10 10 10 10 9